User: anonymous   Login
Location: Kunchanapalle
(16.4623°N, 80.6176°E)
Time: 20:27:24
(UTC+00:00)
Language:

Resurs 01 Rocket - Orbit

View from above orbital plane
View from above orbital plane
View from above satellite
View from above satellite

Ground track
Ground track

The orbit data is extracted from the following two-line orbital elements,

1 23343U 94074B   20304.39860685  .00000038  00000-0  12753-4 0  9996
2 23343  97.9828 356.0866 0008213  78.7997 292.0308 14.76842434398541
Epoch (UTC): 30 October 2020 09:33:59
Eccentricity: 0.0008213
inclination: 97.9828°
perigee height: 633 km
apogee height: 645 km
right ascension of ascending node: 356.0866°
argument of perigee: 78.7997°
revolutions per day: 14.76842434
mean anomaly at epoch: 292.0308°
orbit number at epoch: 39854

The dashed part of the orbit path shows where the satellite is in the earth's shadow,  

DLR